Regional Weather Roundup
Issued by NWS

Home | Current Version | Previous Version | Graphics & Text | Print | Product List | Glossary Off
Versions: 1 2 3 4 5 6 7 8 9 10 11 12 13 14 15 16 17 18 19 20 21 22 23 24 25 26 27 28 29 30 31 32 33 34 35 36 37 38 39 40 41 42 43 44 45 46 47 48 49 50

000
ASUS43 KLMK 272310
RWRKY
NATIONAL WEATHER SERVICE LOUISVILLE KY
600 PM EST THU NOV 27 2014

NOTE "FAIR" INDICATES FEW OR NO CLOUDS BELOW 12,000 FEET
WITH NO SIGNIFICANT WEATHER AND/OR OBSTRUCTIONS TO VISIBILITY.

KYZ001>023-026-027-061>063-070>075-280000-
WESTERN AND SOUTH CENTRAL KENTUCKY

CITY           SKY/WX    TMP DP  RH WIND       PRES   REMARKS
PADUCAH        PTCLDY    33  24  69 CALM      30.46S
HENDERSON      CLOUDY    30  19  64 NW6       30.47R WCI  24
OWENSBORO      MIX PCPN  31  24  75 NW12      30.47R WCI  22
HOPKINSVILLE   CLOUDY    32  23  70 W5        30.47R WCI  27
BOWLING GREEN  CLOUDY    32  21  64 NW5       30.46R WCI  27
GLASGOW        CLOUDY    30  23  77 NW7       30.44R WCI  23
$$

KYZ024-025-028>034-038-045-046-053-280000-
NORTH CENTRAL KENTUCKY

CITY           SKY/WX    TMP DP  RH WIND       PRES   REMARKS
LOUISVILLE/SDF MOCLDY    30  20  66 NW15G23   30.43R WCI  19
LOUISVILLE/LOU CLOUDY    30  20  66 W16G22    30.42R WCI  19
FORT KNOX      FLURRIES  28  22  78 W9        30.41R WCI  19
$$

KYZ035>037-039>044-047>052-055>060-089>105-280000-
NORTHEAST KENTUCKY

CITY           SKY/WX    TMP DP  RH WIND       PRES   REMARKS
LEXINGTON      CLOUDY    31  23  72 W8        30.36R WCI  23
COVINGTON      CLOUDY    31  21  66 W12       30.34R WCI  22
FRANKFORT      CLOUDY    31  22  69 W9        30.36R WCI  23
$$

KYZ054-064>069-076>088-106>120-280000-
SOUTHEAST KENTUCKY

CITY           SKY/WX    TMP DP  RH WIND       PRES   REMARKS
JACKSON        CLOUDY    30  21  69 VRB5      30.32R WCI  25
LONDON         CLOUDY    31  24  75 W8        30.35R WCI  23
SOMERSET       CLOUDY    30  25  80 W7        30.40R WCI  23
MIDDLESBORO    NOT AVBL
MONTICELLO     MIX PCPN  31  25  78 NW7       30.42R WCI  24
$$



USA.gov is the U.S. government's official web portal to all federal, state and local government web resources and services.